This demonstration page uses our WeatherBlox Daily Observations layout. Learn more.

Left ArrowRight Arrow

38.89511, -77.03637

Hourly Observations for May 9, 2018

Temp ( °F °C ) Dew Point ( °F °C ) Humidity (%) Winds ( mph kmh ) Pressure ( in mb ) Visibility ( mi km ) Precip ( " mm )
3:52 am 03:52 Mostly Clear 59 15 51 10.6 75 75 ENE 3 6 30.17 1022 10 16 0.00 0.00
4:52 am 04:52 Mostly Clear 58 14.4 51 10.6 78 78 ENE 6 9 30.16 1021 10 16 0.00 0.00
5:52 am 05:52 Mostly Clear 57 13.9 51 10.6 81 81 ENE 7 11 30.16 1021 10 16 0.00 0.00
6:52 am 06:52 Sunny 58 14.4 50 10 75 75 ENE 6 9 30.17 1022 10 16 0.00 0.00
7:52 am 07:52 Sunny 61 16.1 51 10.6 70 70 NE 6 9 30.18 1022 10 16 0.00 0.00
8:52 am 08:52 Mostly Sunny 63 17.2 51 10.6 65 65 ENE 3 6 30.18 1022 10 16 0.00 0.00
9:52 am 09:52 Sunny 68 20 51 10.6 55 55 Calm 30.17 1022 10 16 0.00 0.00
10:52 am 10:52 Sunny 71 21.7 46 7.8 41 41 ENE 3 6 30.16 1021 10 16 0.00 0.00
11:52 am 11:52 Sunny 75 23.9 47 8.3 37 37 NNE 5 7 30.15 1021 10 16 0.00 0.00
12:52 pm 12:52 Mostly Sunny 76 24.4 49 9.4 39 39 Calm 30.14 1021 10 16 0.00 0.00
1:52 pm 13:52 Mostly Sunny 76 24.4 49 9.4 39 39 SSE 3 6 30.13 1020 10 16 0.00 0.00
2:52 pm 14:52 Mostly Sunny 77 25 48 8.9 36 36 ESE 5 7 30.11 1020 10 16 0.00 0.00
3:52 pm 15:52 Mostly Sunny 79 26.1 48 8.9 34 34 ESE 12 19 30.09 1019 10 16 0.00 0.00
4:52 pm 16:52 Mostly Sunny 78 25.6 47 8.3 33 33 VRB 3 6 30.07 1018 10 16 0.00 0.00
5:52 pm 17:52 Mostly Sunny 76 24.4 48 8.9 37 37 SE 9 15 30.06 1018 10 16 0.00 0.00
6:52 pm 18:52 Mostly Sunny 74 23.3 49 9.4 41 41 SE 10 17 30.06 1018 10 16 0.00 0.00
7:52 pm 19:52 Mostly Sunny 72 22.2 46 7.8 40 40 SE 9 15 30.06 1018 10 16 0.00 0.00
8:52 pm 20:52 Clear 69 20.6 50 10 51 51 S 7 11 30.07 1018 10 16 0.00 0.00
9:52 pm 21:52 Clear 67 19.4 53 11.7 61 61 S 7 11 30.08 1019 10 16 0.00 0.00
10:52 pm 22:52 Clear 67 19.4 51 10.6 57 57 S 8 13 30.08 1019 10 16 0.00 0.00
11:52 pm 23:52 Clear 66 18.9 51 10.6 59 59 SSE 7 11 30.07 1018 10 16 0.00 0.00

Powered by AerisWeather